Weather History for Cody, WY

Change the Weather History Date:

Sunday, March 10, 2013

  Actual Average Record
Temperature  
Mean Temperature 34 °F -  
Max Temperature 51 °F 49 °F 72 °F (1972)
Min Temperature 17 °F 26 °F -20 °F (1932)
Degree Days  
Heating Degree Days 31    
Moisture  
Dew Point 13 °F    
Average Humidity 44    
Maximum Humidity 80    
Minimum Humidity 22    
Precipitation  
Precipitation 0.00 in - - ()
Sea Level Pressure  
Sea Level Pressure 30.08 in    
Wind  
Wind Speed 5 mph (SSE)    
Max Wind Speed 22 mph    
Max Gust Speed 39 mph    
Visibility 10 miles    
Events      
Averages and records for this station are not official NWS values.
T = Trace of Precipitation, MM = Missing Value Source: NWS Daily Summary

Daily Weather History Graph

Daily Weather History Graph

Search for Another Location

Airport:

Trip Planner

Search our weather history database for the weather conditions in past years. The results will help you decide how hot, cold, wet, or windy it might be!

Date:

Astronomy

Mar. 10, 2013 Rise Set
Actual Time 7:36 AM MDT 7:16 PM MDT
Civil Twilight 7:08 AM MDT 7:45 PM MDT
Nautical Twilight 6:34 AM MDT 8:19 PM MDT
Astronomical Twilight 6:00 AM MDT 8:53 PM MDT
Moon 6:40 AM MDT (3/10) 6:27 PM MDT (3/10)
Length of Visible Light 12h 37m
Length of Day
11h 39m
Waning Crescent, 1% of the Moon is Illuminated
Mar 10
Waning Crescent
Mar 11
New
Mar 19
First Quarter
Mar 27
Full
Apr 2
Last Quarter

Hourly Weather History & Observations

Time (MDT) Temp. Windchill Dew Point Humidity Pressure Visibility Wind Dir Wind Speed Gust Speed Precip Events Conditions
12:15 AM 24.8 °F - 10.4 °F 54% 30.17 in 10.0 mi Calm Calm - N/A   Clear
12:35 AM 23.0 °F - 12.2 °F 63% 30.17 in 10.0 mi Calm Calm - N/A   Clear
12:55 AM 21.2 °F 16.4 °F 10.4 °F 63% 30.17 in 10.0 mi SSE 3.5 mph - N/A   Clear
1:15 AM 21.2 °F 13.6 °F 12.2 °F 68% 30.17 in 10.0 mi SSE 5.8 mph - N/A   Clear
1:35 AM 21.2 °F 12.6 °F 12.2 °F 68% 30.16 in 10.0 mi South 6.9 mph - N/A   Clear
1:55 AM 19.4 °F 9.5 °F 10.4 °F 68% 30.16 in 10.0 mi SSE 8.1 mph - N/A   Clear
3:15 AM 21.2 °F 14.9 °F 12.2 °F 68% 30.15 in 10.0 mi SSE 4.6 mph - N/A   Clear
3:35 AM 19.4 °F - 8.6 °F 63% 30.15 in 10.0 mi Calm Calm - N/A   Clear
3:55 AM 19.4 °F - 12.2 °F 74% 30.15 in 10.0 mi Calm Calm - N/A   Clear
4:15 AM 17.6 °F 12.3 °F 10.4 °F 73% 30.14 in 10.0 mi SSW 3.5 mph - N/A   Clear
4:35 AM 17.6 °F 10.7 °F 12.2 °F 79% 30.13 in 10.0 mi South 4.6 mph - N/A   Clear
4:55 AM 21.2 °F 13.6 °F 12.2 °F 68% 30.14 in 10.0 mi South 5.8 mph - N/A   Clear
5:15 AM 21.2 °F 13.6 °F 12.2 °F 68% 30.14 in 10.0 mi South 5.8 mph - N/A   Clear
5:56 AM 19.4 °F - 12.2 °F 74% 30.15 in 10.0 mi Calm Calm - N/A   Clear
6:15 AM 17.6 °F 10.7 °F 12.2 °F 79% 30.15 in 10.0 mi South 4.6 mph - N/A   Clear
6:35 AM 17.6 °F 7.3 °F 10.4 °F 73% 30.14 in 10.0 mi SSE 8.1 mph - N/A   Clear
6:55 AM 21.2 °F 13.6 °F 15.8 °F 80% 30.14 in 10.0 mi SSE 5.8 mph - N/A   Clear
7:15 AM 19.4 °F 14.3 °F 10.4 °F 68% 30.14 in 10.0 mi ENE 3.5 mph - N/A   Clear
7:35 AM 19.4 °F 14.3 °F 12.2 °F 74% 30.15 in 10.0 mi North 3.5 mph - N/A   Clear
7:55 AM 17.6 °F - 10.4 °F 73% 30.16 in 10.0 mi Calm Calm - N/A   Clear
8:15 AM 19.4 °F - 12.2 °F 74% 30.17 in 10.0 mi Calm Calm - N/A   Clear
8:35 AM 21.2 °F - 12.2 °F 68% 30.17 in 10.0 mi Calm Calm - N/A   Clear
8:55 AM 24.8 °F - 15.8 °F 69% 30.18 in 10.0 mi Calm Calm - N/A   Clear
9:15 AM 28.4 °F 22.2 °F 15.8 °F 59% 30.17 in 10.0 mi South 5.8 mph - N/A   Clear
9:35 AM 32.0 °F 25.6 °F 15.8 °F 51% 30.17 in 10.0 mi South 6.9 mph - N/A   Clear
9:55 AM 35.6 °F 32.8 °F 12.2 °F 38% 30.17 in 10.0 mi South 3.5 mph - N/A   Clear
10:15 AM 37.4 °F 31.4 °F 12.2 °F 36% 30.15 in 10.0 mi SE 8.1 mph - N/A   Clear
10:35 AM 41.0 °F 36.4 °F 12.2 °F 31% 30.14 in 10.0 mi East 6.9 mph - N/A   Clear
10:55 AM 42.8 °F 40.1 °F 10.4 °F 27% 30.15 in 10.0 mi ESE 4.6 mph - N/A   Clear
11:15 AM 42.8 °F - 10.4 °F 27% 30.14 in 10.0 mi Calm Calm - N/A   Clear
11:35 AM 44.6 °F 43.1 °F 12.2 °F 27% 30.13 in 10.0 mi SE 3.5 mph - N/A   Clear
11:55 AM 44.6 °F 43.1 °F 12.2 °F 27% 30.13 in 10.0 mi SW 3.5 mph - N/A   Clear
12:35 PM 46.4 °F 44.3 °F 12.2 °F 25% 30.11 in 10.0 mi East 4.6 mph - N/A   Clear
12:55 PM 46.4 °F 42.9 °F 12.2 °F 25% 30.11 in 10.0 mi NE 6.9 mph - N/A   Clear
1:15 PM 46.4 °F 45.2 °F 12.2 °F 25% 30.10 in 10.0 mi NE 3.5 mph - N/A   Clear
1:35 PM 48.2 °F - 12.2 °F 24% 30.09 in 10.0 mi East 8.1 mph - N/A   Clear
1:55 PM 48.2 °F - 12.2 °F 24% 30.07 in 10.0 mi SE 4.6 mph - N/A   Clear
2:15 PM 48.2 °F - 12.2 °F 24% 30.06 in 10.0 mi East 6.9 mph - N/A   Clear
2:55 PM 50.0 °F - 12.2 °F 22% 30.04 in 10.0 mi ENE 5.8 mph - N/A   Clear
3:15 PM 50.0 °F - 12.2 °F 22% 30.03 in 10.0 mi East 4.6 mph - N/A   Clear
3:35 PM 50.0 °F - 14.0 °F 24% 30.02 in 10.0 mi ESE 8.1 mph - N/A   Clear
4:15 PM 51.8 °F - 14.0 °F 22% 30.02 in 10.0 mi ENE 6.9 mph - N/A   Clear
4:35 PM 51.8 °F - 14.0 °F 22% 30.01 in 10.0 mi ESE 8.1 mph - N/A   Clear
4:55 PM 50.0 °F - 12.2 °F 22% 30.01 in 10.0 mi NE 5.8 mph - N/A   Clear
5:15 PM 50.0 °F - 14.0 °F 24% 30.01 in 10.0 mi ENE 4.6 mph - N/A   Clear
5:35 PM 50.0 °F - 14.0 °F 24% 30.01 in 10.0 mi Calm Calm - N/A   Clear
5:55 PM 50.0 °F - 14.0 °F 24% 30.00 in 10.0 mi Calm Calm - N/A   Clear
6:15 PM 48.2 °F - 14.0 °F 25% 30.00 in 10.0 mi Calm Calm - N/A   Clear
6:35 PM 50.0 °F - 12.2 °F 22% 30.00 in 10.0 mi NNW 3.5 mph - N/A   Clear
6:55 PM 46.4 °F - 15.8 °F 29% 30.00 in 10.0 mi Calm Calm - N/A   Clear
7:15 PM 44.6 °F 40.7 °F 14.0 °F 29% 30.00 in 10.0 mi North 6.9 mph - N/A   Clear
7:35 PM 44.6 °F 40.7 °F 15.8 °F 31% 30.00 in 10.0 mi NNW 6.9 mph - N/A   Clear
8:15 PM 42.8 °F 39.3 °F 17.6 °F 36% 30.01 in 10.0 mi South 5.8 mph - N/A   Mostly Cloudy
8:35 PM 44.6 °F 42.2 °F 15.8 °F 31% 30.01 in 10.0 mi West 4.6 mph - N/A   Partly Cloudy
9:15 PM 46.4 °F 38.7 °F 12.2 °F 25% 30.01 in 10.0 mi West 20.7 mph 32.2 mph N/A   Clear
9:35 PM 44.6 °F 36.1 °F 12.2 °F 27% 30.00 in 10.0 mi West 21.9 mph 29.9 mph N/A   Clear
9:55 PM 44.6 °F 36.4 °F 12.2 °F 27% 30.00 in 10.0 mi West 20.7 mph 32.2 mph N/A   Clear
10:15 PM 44.6 °F 36.9 °F 12.2 °F 27% 30.00 in 10.0 mi WSW 18.4 mph 29.9 mph N/A   Clear
11:15 PM 44.6 °F 37.4 °F 12.2 °F 27% 29.98 in 10.0 mi WSW 16.1 mph 28.8 mph N/A   Clear
11:35 PM 42.8 °F 34.3 °F 15.8 °F 34% 29.98 in 10.0 mi West 19.6 mph 28.8 mph N/A   Clear
11:55 PM 42.8 °F 33.8 °F 17.6 °F 36% 29.96 in 10.0 mi West 21.9 mph 36.8 mph N/A   Clear
12:15 AM 42.8 °F 33.8 °F 19.4 °F 39% 29.96 in 10.0 mi West 21.9 mph 39.1 mph N/A   Clear
12:35 AM 41.0 °F 31.6 °F 19.4 °F 42% 29.97 in 10.0 mi WSW 20.7 mph 34.5 mph N/A   Scattered Clouds
12:55 AM 41.0 °F 32.5 °F 19.4 °F 42% 29.96 in 10.0 mi WSW 17.3 mph 34.5 mph N/A   Mostly Cloudy